This is the latest recevied weather packets stored in our database for station/object EA7RX-4. If no packets are shown the sender has not sent any weather packets the latest 10 day(s).
| Time | Temp. | Humidity | Pressure | Rain* | Wind** | Luminosity | Snow |
|---|---|---|---|---|---|---|---|
| 1787450403 | 20° C | 81% | 1015.5 hPa | 0 mm | - | 0 W/m² | - |
| 1787449803 | 20.56° C | 80% | 1015.6 hPa | 0 mm | - | 0 W/m² | - |
| 1787449203 | 20.56° C | 80% | 1015.7 hPa | 0 mm | - | 0 W/m² | - |
| 1787448603 | 20.56° C | 79% | 1015.7 hPa | 0 mm | - | 0 W/m² | - |
| 1787448003 | 20.56° C | 78% | 1015.6 hPa | 0 mm | - | 0 W/m² | - |
| 1787447403 | 20.56° C | 78% | 1015.6 hPa | 0 mm | - | 0 W/m² | - |
| 1787446803 | 21.11° C | 77% | 1015.6 hPa | 0 mm | - | 0 W/m² | - |
| 1787446203 | 21.11° C | 77% | 1015.8 hPa | 0 mm | - | 0 W/m² | - |
| 1787445603 | 21.11° C | 76% | 1015.7 hPa | 0 mm | - | 0 W/m² | - |
| 1787445003 | 21.11° C | 75% | 1015.8 hPa | 0 mm | - | 0 W/m² | - |
| 1787444403 | 21.11° C | 74% | 1015.9 hPa | 0 mm | - | 0 W/m² | - |
| 1787443803 | 21.67° C | 73% | 1015.9 hPa | 0 mm | - | 0 W/m² | - |
| 1787443203 | 21.67° C | 71% | 1015.9 hPa | 0 mm | - | 0 W/m² | - |
| 1787442603 | 21.67° C | 70% | 1015.7 hPa | 0 mm | - | 0 W/m² | - |
| 1787442003 | 22.22° C | 69% | 1015.7 hPa | 0 mm | - | 0 W/m² | - |
| 1787441403 | 22.22° C | 67% | 1015.7 hPa | 0 mm | - | 0 W/m² | - |
| 1787440803 | 22.22° C | 63% | 1015.5 hPa | 0 mm | - | 0 W/m² | - |
| 1787440203 | 22.78° C | 58% | 1015.8 hPa | 0 mm | - | 0 W/m² | - |
| 1787439603 | 23.33° C | 51% | 1015.5 hPa | 0 mm | - | 0 W/m² | - |
| 1787439003 | 23.33° C | 47% | 1015.4 hPa | 0 mm | - | 0 W/m² | - |
| 1787438403 | 23.89° C | 37% | 1015.4 hPa | 0 mm | - | 0 W/m² | - |
| 1787437803 | 22.78° C | 37% | 1015.3 hPa | 0 mm | - | 0 W/m² | - |
| 1787437203 | 24.44° C | 34% | 1015.4 hPa | 0 mm | - | 0 W/m² | - |
| 1787436603 | 25° C | 34% | 1015.1 hPa | 0 mm | - | 0 W/m² | - |
| 1787436003 | 25° C | 34% | 1014.9 hPa | 0 mm | - | 0 W/m² | - |
* Rain latest hour (hover to see other rain measurements)
** Current wind speed in m/s (hover to see current wind gust speed)